TimeCDT,TemperatureF,Dew PointF,Humidity,Sea Level PressureIn,VisibilityMPH,Wind Direction,Wind SpeedMPH,Gust SpeedMPH,PrecipitationIn,Events,Conditions,WindDirDegrees,DateUTC
12:58 AM,59.9,55.2,84,29.93,10.0,WSW,3.5,-,N/A,,Overcast,250,2013-05-23 05:58:00
1:58 AM,56.7,55.0,94,29.92,10.0,SW,2.3,-,N/A,,Partly Cloudy,230,2013-05-23 06:58:00
2:58 AM,55.9,54.7,96,29.92,10.0,SW,2.3,-,N/A,,Clear,220,2013-05-23 07:58:00
3:58 AM,55.4,54.3,96,29.94,10.0,West,3.5,-,N/A,,Clear,270,2013-05-23 08:58:00
4:58 AM,54.5,54.1,99,29.96,10.0,West,4.6,-,N/A,,Clear,280,2013-05-23 09:58:00
5:58 AM,54.3,53.6,97,29.99,10.0,West,4.6,-,N/A,,Clear,280,2013-05-23 10:58:00
6:58 AM,55.9,54.0,93,30.02,10.0,West,6.9,-,N/A,,Clear,280,2013-05-23 11:58:00
7:58 AM,58.3,53.8,85,30.04,10.0,NW,8.1,-,N/A,,Clear,310,2013-05-23 12:58:00
8:58 AM,61.0,53.1,75,30.05,10.0,NNW,12.7,18.4,N/A,,Partly Cloudy,330,2013-05-23 13:58:00
9:58 AM,62.6,51.6,67,30.06,10.0,NW,12.7,17.3,N/A,,Clear,320,2013-05-23 14:58:00
10:58 AM,63.9,52.5,67,30.12,10.0,Variable,4.6,-,N/A,,Mostly Cloudy,0,2013-05-23 15:58:00
11:58 AM,66.4,54.0,64,30.11,10.0,NW,9.2,-,N/A,,Scattered Clouds,310,2013-05-23 16:58:00
12:58 PM,67.3,55.2,65,30.11,10.0,NNW,12.7,19.6,N/A,,Overcast,340,2013-05-23 17:58:00
1:58 PM,67.6,55.9,66,30.13,10.0,NW,11.5,-,N/A,,Mostly Cloudy,320,2013-05-23 18:58:00
2:58 PM,68.4,55.6,64,30.14,10.0,WNW,9.2,-,N/A,,Partly Cloudy,300,2013-05-23 19:58:00
3:58 PM,67.8,56.5,67,30.13,10.0,NNW,15.0,-,N/A,,Scattered Clouds,340,2013-05-23 20:58:00
4:23 PM,68.0,55.4,64,30.14,10.0,North,13.8,-,N/A,,Mostly Cloudy,360,2013-05-23 21:23:00
4:38 PM,69.8,55.4,60,30.14,10.0,North,10.4,-,N/A,,Mostly Cloudy,10,2013-05-23 21:38:00
4:58 PM,68.2,55.6,64,30.14,10.0,North,12.7,-,N/A,,Mostly Cloudy,10,2013-05-23 21:58:00
5:58 PM,66.6,55.4,67,30.14,10.0,North,8.1,-,N/A,,Overcast,350,2013-05-23 22:58:00
6:58 PM,64.8,55.0,71,30.15,10.0,North,10.4,-,N/A,,Mostly Cloudy,350,2013-05-23 23:58:00
7:58 PM,63.7,55.6,75,30.14,10.0,North,8.1,-,N/A,,Scattered Clouds,10,2013-05-24 00:58:00
8:58 PM,60.3,55.4,84,30.17,10.0,NNE,8.1,-,N/A,,Partly Cloudy,20,2013-05-24 01:58:00
9:58 PM,57.6,55.0,91,30.19,10.0,NNE,3.5,-,N/A,,Clear,20,2013-05-24 02:58:00
10:58 PM,56.1,55.0,96,30.20,10.0,NNE,6.9,-,N/A,,Clear,30,2013-05-24 03:58:00
11:58 PM,55.4,54.5,97,30.21,10.0,NNE,5.8,-,N/A,,Clear,30,2013-05-24 04:58:00